• In Germany
  • List of Countries
  • For 7 days
  • Water Temperature
  • Satellite Maps
  • Weather Map
  • Weather Widgets
  • user-avatar
    Login

    Hourly Weather Francistown

    Today, 19 October, Friday

    Time Temperature Precipitation Wind Pressure Humidity
    00:00 +17°C° 0 mm 7 mps 676 mmHg 76%
    01:00 +17°C° 0 mm 6 mps 676 mmHg 77%
    02:00 +16°C° 0 mm 6 mps 676 mmHg 79%
    03:00 +16°C° 0 mm 5 mps 676 mmHg 80%
    04:00 +16°C° 0 mm 5 mps 676 mmHg 81%
    05:00 +16°C° 0 mm 5 mps 676 mmHg 82%
    06:00 +17°C° 0 mm 5 mps 676 mmHg 76%
    07:00 +20°C° 0 mm 5 mps 677 mmHg 69%
    08:00 +21°C° 0 mm 5 mps 678 mmHg 62%
    09:00 +25°C° 0 mm 5 mps 678 mmHg 51%
    10:00 +28°C° 0 mm 5 mps 678 mmHg 40%
    11:00 +32°C° 0 mm 6 mps 678 mmHg 29%
    12:00 +34°C° 0 mm 5 mps 678 mmHg 25%
    13:00 +35°C° 0 mm 5 mps 677 mmHg 21%
    14:00 +36°C° 0 mm 5 mps 677 mmHg 18%
    15:00 +36°C° 0 mm 5 mps 677 mmHg 18%
    16:00 +35°C° 0 mm 5 mps 676 mmHg 18%
    17:00 +35°C° 0 mm 5 mps 676 mmHg 19%
    18:00 +33°C° 0 mm 5 mps 676 mmHg 22%
    19:00 +30°C° 0 mm 5 mps 676 mmHg 25%
    20:00 +28°C° 0 mm 4 mps 677 mmHg 28%
    21:00 +27°C° 0 mm 4 mps 677 mmHg 32%
    22:00 +26°C° 0 mm 4 mps 677 mmHg 35%
    23:00 +25°C° 0 mm 4 mps 677 mmHg 38%

    Tomorrow, 20 October, Saturday

    Time Temperature Precipitation Wind Pressure Humidity
    00:00 +23°C° 0 mm 4 mps 677 mmHg 42%
    01:00 +23°C° 0 mm 4 mps 677 mmHg 45%
    02:00 +22°C° 0 mm 3 mps 677 mmHg 49%
    03:00 +21°C° 0 mm 3 mps 677 mmHg 51%
    04:00 +21°C° 0 mm 3 mps 676 mmHg 54%
    05:00 +20°C° 0 mm 3 mps 676 mmHg 56%
    06:00 +22°C° 0 mm 4 mps 677 mmHg 50%
    07:00 +25°C° 0 mm 5 mps 678 mmHg 44%
    08:00 +28°C° 0 mm 6 mps 679 mmHg 38%
    09:00 +30°C° 0 mm 6 mps 679 mmHg 31%
    10:00 +34°C° 0 mm 6 mps 679 mmHg 23%
    11:00 +36°C° 0 mm 7 mps 679 mmHg 16%
    12:00 +38°C° 0 mm 7 mps 679 mmHg 15%
    13:00 +39°C° 0 mm 7 mps 678 mmHg 13%
    14:00 +40°C° 0 mm 6 mps 678 mmHg 12%
    15:00 +39°C° 0 mm 7 mps 678 mmHg 14%
    16:00 +38°C° 0 mm 8 mps 677 mmHg 16%
    17:00 +37°C° 0 mm 8 mps 677 mmHg 18%
    18:00 +34°C° 0 mm 9 mps 678 mmHg 25%
    19:00 +31°C° 0 mm 9 mps 678 mmHg 32%
    20:00 +28°C° 0 mm 10 mps 679 mmHg 38%
    21:00 +26°C° 0 mm 10 mps 679 mmHg 47%
    22:00 +23°C° 0 mm 11 mps 680 mmHg 57%
    23:00 +19°C° 0 mm 11 mps 680 mmHg 66%

    Day after tomorrow, 21 October, Sunday

    Time Temperature Precipitation Wind Pressure Humidity
    00:00 +19°C° 0 mm 11 mps 680 mmHg 66%
    01:00 +18°C° 0 mm 11 mps 680 mmHg 67%
    02:00 +18°C° 0 mm 11 mps 680 mmHg 68%
    03:00 +17°C° 0 mm 10 mps 680 mmHg 67%
    04:00 +17°C° 0 mm 10 mps 680 mmHg 67%
    05:00 +17°C° 0 mm 9 mps 680 mmHg 67%
    06:00 +17°C° 0 mm 9 mps 681 mmHg 66%
    07:00 +17°C° 0 mm 9 mps 681 mmHg 66%
    08:00 +17°C° 0 mm 9 mps 682 mmHg 65%
    09:00 +18°C° 0 mm 9 mps 682 mmHg 61%
    10:00 +19°C° 0 mm 10 mps 682 mmHg 57%
    11:00 +21°C° 0 mm 10 mps 683 mmHg 53%
    12:00 +22°C° 0 mm 10 mps 682 mmHg 49%
    13:00 +23°C° 0 mm 10 mps 682 mmHg 45%
    14:00 +24°C° 0 mm 10 mps 681 mmHg 42%
    15:00 +23°C° 0 mm 9 mps 681 mmHg 44%
    16:00 +22°C° 0 mm 9 mps 681 mmHg 45%
    17:00 +21°C° 0 mm 9 mps 680 mmHg 47%
    18:00 +19°C° 0 mm 9 mps 681 mmHg 51%
    19:00 +18°C° 0 mm 9 mps 681 mmHg 55%
    20:00 +17°C° 0 mm 9 mps 682 mmHg 58%
    21:00 +17°C° 0 mm 9 mps 682 mmHg 57%
    22:00 +17°C° 0 mm 9 mps 682 mmHg 56%
    23:00 +16°C° 0 mm 10 mps 682 mmHg 56%

    22 October, Monday

    Time Temperature Precipitation Wind Pressure Humidity
    00:00 +16°C° 0 mm 9 mps 681 mmHg 56%
    01:00 +15°C° 0 mm 9 mps 681 mmHg 57%
    02:00 +15°C° 0 mm 9 mps 681 mmHg 58%
    03:00 +13°C° 0 mm 9 mps 681 mmHg 62%
    04:00 +13°C° 0 mm 9 mps 681 mmHg 65%
    05:00 +12°C° 0 mm 8 mps 681 mmHg 68%
    06:00 +12°C° 0 mm 8 mps 682 mmHg 67%
    07:00 +13°C° 0 mm 8 mps 682 mmHg 65%
    08:00 +13°C° 0 mm 9 mps 683 mmHg 63%
    09:00 +16°C° 0 mm 8 mps 683 mmHg 56%
    10:00 +17°C° 0 mm 8 mps 683 mmHg 49%
    11:00 +20°C° 0 mm 8 mps 683 mmHg 42%
    12:00 +21°C° 0 mm 8 mps 682 mmHg 38%
    13:00 +22°C° 0 mm 7 mps 682 mmHg 34%
    14:00 +23°C° 0 mm 7 mps 681 mmHg 30%
    15:00 +23°C° 0 mm 7 mps 681 mmHg 30%
    16:00 +22°C° 0 mm 7 mps 681 mmHg 29%
    17:00 +22°C° 0 mm 7 mps 681 mmHg 29%
    18:00 +21°C° 0 mm 7 mps 681 mmHg 31%
    19:00 +21°C° 0 mm 7 mps 681 mmHg 34%
    20:00 +20°C° 0 mm 8 mps 682 mmHg 36%
    21:00 +18°C° 0 mm 8 mps 682 mmHg 39%
    22:00 +18°C° 0 mm 8 mps 681 mmHg 42%
    23:00 +17°C° 0 mm 8 mps 681 mmHg 45%

    23 October, Tuesday

    Time Temperature Precipitation Wind Pressure Humidity
    00:00 +17°C° 0 mm 8 mps 681 mmHg 48%
    01:00 +16°C° 0 mm 8 mps 681 mmHg 51%
    02:00 +15°C° 0 mm 8 mps 681 mmHg 54%
    03:00 +15°C° 0 mm 8 mps 681 mmHg 57%
    04:00 +13°C° 0 mm 8 mps 681 mmHg 60%
    05:00 +14°C° 0 mm 7 mps 681 mmHg 63%
    06:00 +13°C° 0 mm 8 mps 682 mmHg 61%
    07:00 +15°C° 0 mm 8 mps 682 mmHg 59%
    08:00 +16°C° 0 mm 8 mps 683 mmHg 57%
    09:00 +18°C° 0 mm 8 mps 683 mmHg 50%
    10:00 +21°C° 0 mm 8 mps 683 mmHg 44%
    11:00 +23°C° 0 mm 7 mps 683 mmHg 37%
    12:00 +24°C° 0 mm 7 mps 682 mmHg 33%
    13:00 +26°C° 0 mm 7 mps 682 mmHg 29%
    14:00 +28°C° 0 mm 7 mps 681 mmHg 25%
    15:00 +27°C° 0 mm 7 mps 681 mmHg 26%
    16:00 +26°C° 0 mm 7 mps 680 mmHg 27%
    17:00 +26°C° 0 mm 7 mps 680 mmHg 28%
    18:00 +24°C° 0 mm 7 mps 681 mmHg 30%
    19:00 +22°C° 0 mm 7 mps 681 mmHg 33%
    20:00 +21°C° 0 mm 7 mps 681 mmHg 36%
    21:00 +21°C° 0 mm 7 mps 681 mmHg 37%
    22:00 +20°C° 0 mm 7 mps 682 mmHg 38%
    23:00 +20°C° 0 mm 7 mps 682 mmHg 40%

    24 October, Wednesday

    Time Temperature Precipitation Wind Pressure Humidity
    00:00 +18°C° 0 mm 7 mps 681 mmHg 41%
    01:00 +18°C° 0 mm 7 mps 681 mmHg 42%
    02:00 +17°C° 0 mm 7 mps 681 mmHg 44%
    03:00 +16°C° 0 mm 6 mps 681 mmHg 48%
    04:00 +16°C° 0 mm 6 mps 681 mmHg 53%
    05:00 +15°C° 0 mm 6 mps 681 mmHg 57%
    06:00 +16°C° 0 mm 6 mps 681 mmHg 56%
    07:00 +17°C° 0 mm 6 mps 682 mmHg 55%
    08:00 +19°C° 0 mm 6 mps 682 mmHg 55%
    09:00 +21°C° 0 mm 6 mps 682 mmHg 49%
    10:00 +22°C° 0 mm 6 mps 682 mmHg 44%
    11:00 +24°C° 0 mm 6 mps 682 mmHg 38%
    12:00 +26°C° 0 mm 5 mps 682 mmHg 34%
    13:00 +27°C° 0 mm 5 mps 681 mmHg 30%
    14:00 +28°C° 0 mm 5 mps 681 mmHg 26%
    15:00 +28°C° 0 mm 5 mps 680 mmHg 27%
    16:00 +27°C° 0 mm 5 mps 680 mmHg 27%
    17:00 +27°C° 0 mm 5 mps 679 mmHg 27%
    18:00 +26°C° 0 mm 4 mps 680 mmHg 29%
    19:00 +25°C° 0 mm 4 mps 680 mmHg 31%
    20:00 +23°C° 0 mm 4 mps 680 mmHg 33%
    21:00 +23°C° 0 mm 4 mps 680 mmHg 34%
    22:00 +22°C° 0 mm 4 mps 680 mmHg 35%
    23:00 +21°C° 0 mm 3 mps 680 mmHg 37%
    Show more